Reno - Stead, NV

2:11 AM PDT on May 23, 2017 (GMT -0700)
Reno - Stead

Weather History for KRTS - May, 2013

Change the Weather History Date:

Thursday, May 16, 2013

  Actual Average (KRNO) Record (KRNO)
Temperature  
Mean Temperature 52 °F -  
Max Temperature 59 °F 72 °F 95 °F (1970)
Min Temperature 46 °F 38 °F 25 °F (1943)
Degree Days  
Heating Degree Days 12    
Growing Degree Days 2 (Base 50)    
Moisture  
Dew Point 34 °F    
Average Humidity 49    
Maximum Humidity 62    
Minimum Humidity 38    
Precipitation  
Precipitation 0.00 in - - ()
Sea Level Pressure  
Sea Level Pressure 29.99 in    
Wind  
Wind Speed 10 mph (West)    
Max Wind Speed 22 mph    
Max Gust Speed 34 mph    
Visibility 10 miles    
Events Rain    
Averages and records for this station are not official NWS values.
T = Trace of Precipitation, MM = Missing Value Source: NWS Daily Summary

Daily Weather History Graph

Daily Weather History Graph

Search for Another Location

Airport or City:

Trip Planner

Search our weather history database for the weather conditions in past years. The results will help you decide how hot, cold, wet, or windy it might be!

Date:

Astronomy

May. 16, 2013 Rise Set
Actual Time 5:43 AM PDT 8:08 PM PDT
Civil Twilight 5:13 AM PDT 8:39 PM PDT
Nautical Twilight 4:35 AM PDT 9:17 PM PDT
Astronomical Twilight 3:53 AM PDT 9:59 PM PDT
Moon 11:21 AM PDT (5/16) 12:32 AM PDT (5/16)
Length of Visible Light 15h 25m
Length of Day
14h 24m
Waxing Crescent, 36% of the Moon is Illuminated
May 16
Waxing Crescent
May 17
First Quarter
May 24
Full
May 31
Last Quarter
Jun 8
New

Hourly Weather History & Observations

Time (PDT) Temp. Windchill Dew Point Humidity Pressure Visibility Wind Dir Wind Speed Gust Speed Precip Events Conditions
12:15 AM 48.2 °F - 33.8 °F 58% 30.07 in 10.0 mi WSW 4.6 mph - N/A   Clear
12:35 AM 50.0 °F - 35.6 °F 58% 30.07 in 10.0 mi WSW 8.1 mph - N/A   Clear
12:55 AM 50.0 °F - 35.6 °F 58% 30.06 in 10.0 mi West 8.1 mph - N/A   Clear
1:15 AM 48.2 °F - 35.6 °F 62% 30.06 in 10.0 mi WNW 8.1 mph - N/A   Clear
1:35 AM 46.4 °F 43.5 °F 33.8 °F 62% 30.05 in 10.0 mi NW 5.8 mph - N/A   Clear
1:55 AM 48.2 °F - 33.8 °F 58% 30.05 in 10.0 mi North 4.6 mph - N/A   Clear
2:15 AM 48.2 °F - 33.8 °F 58% 30.04 in 10.0 mi Calm Calm - N/A   Clear
2:35 AM 48.2 °F - 33.8 °F 58% 30.04 in 10.0 mi WNW 3.5 mph - N/A   Clear
2:55 AM 48.2 °F - 33.8 °F 58% 30.03 in 10.0 mi WNW 6.9 mph - N/A   Clear
3:15 AM 48.2 °F - 33.8 °F 58% 30.02 in 10.0 mi East 5.8 mph - N/A   Clear
3:35 AM 50.0 °F - 33.8 °F 54% 30.02 in 10.0 mi ENE 3.5 mph - N/A   Mostly Cloudy
3:55 AM 50.0 °F - 33.8 °F 54% 30.01 in 10.0 mi Calm Calm - N/A   Mostly Cloudy
4:15 AM 50.0 °F - 33.8 °F 54% 30.01 in 10.0 mi NE 4.6 mph - N/A   Scattered Clouds
4:35 AM 50.0 °F - 32.0 °F 50% 30.01 in 10.0 mi Calm Calm - N/A   Mostly Cloudy
4:55 AM 50.0 °F - 33.8 °F 54% 30.01 in 10.0 mi WNW 4.6 mph - N/A   Overcast
5:15 AM 53.6 °F - 32.0 °F 44% 30.01 in 10.0 mi West 6.9 mph - N/A   Overcast
5:35 AM 53.6 °F - 32.0 °F 44% 30.00 in 10.0 mi West 6.9 mph - N/A   Overcast
5:55 AM 53.6 °F - 32.0 °F 44% 30.00 in 10.0 mi WNW 8.1 mph - N/A   Overcast
6:15 AM 53.6 °F - 32.0 °F 44% 30.00 in 10.0 mi WSW 9.2 mph 17.3 mph N/A   Overcast
6:35 AM 53.6 °F - 32.0 °F 44% 30.00 in 10.0 mi WSW 8.1 mph - N/A   Overcast
6:55 AM 53.6 °F - 32.0 °F 44% 30.00 in 10.0 mi WSW 11.5 mph - N/A   Mostly Cloudy
7:15 AM 55.4 °F - 32.0 °F 41% 30.00 in 10.0 mi SW 11.5 mph - N/A   Scattered Clouds
7:35 AM 53.6 °F - 32.0 °F 44% 30.00 in 10.0 mi WSW 11.5 mph 16.1 mph N/A   Scattered Clouds
7:55 AM 53.6 °F - 32.0 °F 44% 30.00 in 10.0 mi WSW 13.8 mph 18.4 mph N/A   Mostly Cloudy
8:15 AM 53.6 °F - 33.8 °F 47% 30.01 in 10.0 mi WSW 12.7 mph - N/A   Mostly Cloudy
8:35 AM 53.6 °F - 33.8 °F 47% 30.01 in 10.0 mi WSW 8.1 mph - N/A   Mostly Cloudy
8:55 AM 53.6 °F - 35.6 °F 51% 30.00 in 10.0 mi West 15.0 mph 24.2 mph N/A   Partly Cloudy
9:15 AM 53.6 °F - 35.6 °F 51% 30.00 in 10.0 mi West 16.1 mph 23.0 mph N/A   Clear
9:35 AM 53.6 °F - 35.6 °F 51% 30.00 in 10.0 mi WNW 18.4 mph 25.3 mph N/A   Partly Cloudy
9:55 AM 53.6 °F - 35.6 °F 51% 30.00 in 10.0 mi West 18.4 mph 24.2 mph N/A   Clear
10:15 AM 55.4 °F - 35.6 °F 47% 30.00 in 10.0 mi West 21.9 mph 25.3 mph N/A   Partly Cloudy
10:35 AM 55.4 °F - 35.6 °F 47% 30.00 in 10.0 mi West 19.6 mph 24.2 mph N/A   Scattered Clouds
10:55 AM 55.4 °F - 35.6 °F 47% 30.00 in 10.0 mi WSW 17.3 mph 24.2 mph N/A   Scattered Clouds
11:15 AM 55.4 °F - 35.6 °F 47% 29.99 in 10.0 mi WSW 17.3 mph 25.3 mph N/A   Partly Cloudy
11:35 AM 57.2 °F - 35.6 °F 44% 29.99 in 10.0 mi WSW 20.7 mph 27.6 mph N/A   Partly Cloudy
11:55 AM 57.2 °F - 35.6 °F 44% 29.99 in 10.0 mi West 18.4 mph 23.0 mph N/A   Clear
12:15 PM 57.2 °F - 35.6 °F 44% 29.99 in 10.0 mi WSW 18.4 mph 23.0 mph N/A   Clear
12:35 PM 55.4 °F - 37.4 °F 51% 29.99 in 10.0 mi WNW 16.1 mph 23.0 mph N/A   Partly Cloudy
12:55 PM 57.2 °F - 39.2 °F 51% 29.98 in 10.0 mi WNW 16.1 mph 20.7 mph N/A   Clear
1:15 PM 57.2 °F - 39.2 °F 51% 29.98 in 10.0 mi WNW 17.3 mph 21.9 mph N/A Rain Light Rain
1:35 PM 59.0 °F - 37.4 °F 45% 29.98 in 10.0 mi West 17.3 mph 24.2 mph N/A   Partly Cloudy
1:55 PM 57.2 °F - 39.2 °F 51% 29.98 in 10.0 mi West 16.1 mph 21.9 mph N/A Rain Light Rain
2:15 PM 57.2 °F - 37.4 °F 48% 29.97 in 10.0 mi West 18.4 mph 21.9 mph N/A   Scattered Clouds
2:35 PM 57.2 °F - 37.4 °F 48% 29.97 in 10.0 mi West 19.6 mph 27.6 mph N/A   Mostly Cloudy
2:55 PM 57.2 °F - 37.4 °F 48% 29.96 in 10.0 mi West 19.6 mph 26.5 mph N/A   Scattered Clouds
3:15 PM 59.0 °F - 35.6 °F 42% 29.96 in 10.0 mi West 17.3 mph 26.5 mph N/A   Clear
3:35 PM 59.0 °F - 35.6 °F 42% 29.96 in 10.0 mi West 12.7 mph 34.5 mph N/A   Scattered Clouds
3:55 PM 57.2 °F - 33.8 °F 41% 29.95 in 10.0 mi West 20.7 mph 26.5 mph N/A   Scattered Clouds
4:15 PM 57.2 °F - 35.6 °F 44% 29.96 in 10.0 mi West 19.6 mph 27.6 mph N/A   Partly Cloudy
4:35 PM 59.0 °F - 35.6 °F 42% 29.96 in 10.0 mi West 20.7 mph - N/A   Clear
4:55 PM 59.0 °F - 35.6 °F 42% 29.96 in 10.0 mi West 17.3 mph 26.5 mph N/A   Clear
5:15 PM 59.0 °F - 33.8 °F 39% 29.96 in 10.0 mi West 17.3 mph 25.3 mph N/A   Clear
5:35 PM 57.2 °F - 32.0 °F 38% 29.97 in 10.0 mi West 19.6 mph 26.5 mph N/A   Scattered Clouds
5:55 PM 55.4 °F - 32.0 °F 41% 29.97 in 10.0 mi West 19.6 mph 23.0 mph N/A   Overcast
6:15 PM 55.4 °F - 32.0 °F 41% 29.96 in 10.0 mi West 16.1 mph 21.9 mph N/A   Overcast
6:35 PM 55.4 °F - 32.0 °F 41% 29.95 in 10.0 mi WSW 15.0 mph 20.7 mph N/A   Mostly Cloudy
6:55 PM 53.6 °F - 32.0 °F 44% 29.95 in 10.0 mi WSW 16.1 mph - N/A   Scattered Clouds
7:15 PM 53.6 °F - 32.0 °F 44% 29.96 in 10.0 mi WSW 12.7 mph 20.7 mph N/A   Mostly Cloudy
7:35 PM 53.6 °F - 30.2 °F 41% 29.96 in 10.0 mi West 12.7 mph 19.6 mph N/A   Overcast
7:55 PM 53.6 °F - 32.0 °F 44% 29.97 in 10.0 mi WSW 12.7 mph 23.0 mph N/A   Overcast
8:15 PM 51.8 °F - 32.0 °F 47% 29.97 in 10.0 mi WSW 15.0 mph 20.7 mph N/A   Overcast
8:35 PM 50.0 °F - 32.0 °F 50% 29.98 in 10.0 mi WSW 13.8 mph - N/A   Overcast
8:55 PM 50.0 °F - 30.2 °F 47% 29.98 in 10.0 mi West 9.2 mph - N/A   Overcast
9:15 PM 50.0 °F - 30.2 °F 47% 29.99 in 10.0 mi NW 6.9 mph - N/A   Overcast
9:35 PM 48.2 °F - 32.0 °F 54% 29.99 in 10.0 mi NNW 10.4 mph - N/A   Mostly Cloudy
9:55 PM 48.2 °F - 32.0 °F 54% 29.99 in 10.0 mi NW 8.1 mph - N/A   Overcast
10:15 PM 48.2 °F - 32.0 °F 54% 29.99 in 10.0 mi NW 10.4 mph - N/A   Overcast
10:35 PM 46.4 °F 42.4 °F 32.0 °F 57% 30.00 in 10.0 mi NW 8.1 mph - N/A   Overcast
10:55 PM 46.4 °F 43.5 °F 32.0 °F 57% 29.99 in 10.0 mi WNW 5.8 mph - N/A   Mostly Cloudy
11:15 PM 48.2 °F - 33.8 °F 58% 29.99 in 10.0 mi West 11.5 mph - N/A   Overcast
11:35 PM 48.2 °F - 33.8 °F 58% 29.99 in 10.0 mi West 13.8 mph 18.4 mph N/A   Overcast
11:55 PM 48.2 °F - 35.6 °F 62% 29.99 in 10.0 mi WNW 12.7 mph - N/A   Overcast